Weather reports worldwide

Advertisment
Gardelegen, Germany (10359): temperature & dewpoint: 12.10.2018 03:00:00 - 18.10.2018 03:00:00 (CEST)Gardelegen, Germany (10359): temperature 5cm & temperature -5cm: 12.10.2018 03:00:00 - 18.10.2018 03:00:00 (CEST)Gardelegen, Germany (10359): temperature -20cm & temperature -100cm: 12.10.2018 03:00:00 - 18.10.2018 03:00:00 (CEST)Gardelegen, Germany (10359): wind speed & gusts: 12.10.2018 03:00:00 - 18.10.2018 03:00:00 (CEST)Gardelegen, Germany (10359): wind direction: 12.10.2018 03:00:00 - 18.10.2018 03:00:00 (CEST)Gardelegen, Germany (10359): reduced air pressure: 12.10.2018 03:00:00 - 18.10.2018 03:00:00 (CEST)Gardelegen, Germany (10359): visibility: 12.10.2018 03:00:00 - 18.10.2018 03:00:00 (CEST)Gardelegen, Germany (10359): sunshine duration: 12.10.2018 03:00:00 - 18.10.2018 03:00:00 (CEST)Gardelegen, Germany (10359): precipitation: 12.10.2018 03:00:00 - 18.10.2018 03:00:00 (CEST)
Date & Time tt [°C] td [°C] tt 5cm [°C] tt -5cm [°C] tt -20cm [°C] tt -100cm [°C] ff [km/h] ff [kn] fx [km/h] fx [kn] dd ppp [hPa] vv [km] sd [min] rr [mm]
18.10.2018 03:00:00 5,6 5,1 3,7 10,1 13,7 14,1 0 0 3 1 N 1020,2 3,3 0 0,0
18.10.2018 02:00:00 6,4 6,1 3,9 10,6 14,0 14,1 0 0 3 1 N 1020,1 2,3 0 0,0
18.10.2018 01:00:00 6,7 5,9 4,5 11,1 14,3 14,1 0 0 5 3 N 1020,1 5 0 0,0
18.10.2018 00:00:00 6,9 6,5 4,6 11,6 14,7 14,1 3 1 3 2 S 1020,2 0,5 0 0,0
17.10.2018 23:00:00 8,2 8,0 5,2 12,3 15,1 14,1 0 0 3 2 N 1020,0 0,3 0 0,0
17.10.2018 22:00:00 9,2 8,5 6,0 13,1 15,4 14,1 0 0 2 1 N 1020,1 6 0 0,0
17.10.2018 21:00:00 10,0 8,9 7,0 14,0 15,8 14,1 0 0 2 1 N 1019,7 8 0 0,0
17.10.2018 20:00:00 11,2 9,4 8,0 15,1 16,0 14,1 0 0 3 2 N 1019,4 12 0 0,0
17.10.2018 19:00:00 13,9 10,3 9,8 16,6 16,2 14,1 3 1 4 2 SE 1019,0 13 0 0,0
17.10.2018 18:00:00 18,5 11,2 14,1 18,4 16,0 14,1 3 2 8 5 N 1018,7 7 27 0,0
17.10.2018 17:00:00 21,2 11,0 20,4 19,6 15,7 14,1 5 3 11 6 NNW 1018,5 11 60 0,0
17.10.2018 16:00:00 22,2 10,9 22,7 20,8 15,1 14,1 5 3 10 5 N 1018,5 16 60 0,0
17.10.2018 15:00:00 21,4 10,9 23,2 20,8 14,4 14,1 4 2 10 5 N 1018,8 8 60 0,0
17.10.2018 14:00:00 20,4 11,2 24,0 19,8 13,6 14,1 4 2 8 5 NW 1019,0 8 60 0,0
17.10.2018 13:00:00 18,9 11,8 21,8 17,8 12,9 14,1 3 1 9 5 N 1019,5 8 60 0,0
17.10.2018 12:00:00 16,0 11,6 21,5 15,2 12,5 14,1 5 3 11 6 W 1019,9 7 60 0,0
17.10.2018 11:00:00 14,0 11,0 16,0 12,7 12,3 14,1 3 1 6 3 S 1019,9 7 31 0,0
17.10.2018 10:00:00 10,1 9,5 11,8 10,8 12,3 14,1 3 2 6 3 WSW 1020,0 2,9 0 0,0
17.10.2018 09:00:00 7,9 7,3 8,0 9,5 12,5 14,1 3 2 5 3 E 1019,9 6 0 0,0
17.10.2018 08:00:00 7,1 6,7 6,0 9,3 12,8 14,1 4 2 5 3 SSE 1019,8 4,1 0 0,0
17.10.2018 07:00:00 6,3 6,0 4,6 9,6 13,0 14,1 3 1 5 3 SW 1019,6 2,0 0 0,0
17.10.2018 06:00:00 6,7 6,4 4,1 10,0 13,3 14,1 3 2 3 2 SSE 1019,5 6 0 0,0
17.10.2018 05:00:00 6,9 6,6 4,5 10,4 13,6 14,1 3 2 4 2 SSW 1019,4 2,3 0 0,0
17.10.2018 04:00:00 7,4 6,8 5,0 10,8 13,9 14,1 2 1 4 2 S 1019,5 4,8 0 0,0
17.10.2018 03:00:00 8,0 6,9 6,2 11,3 14,2 14,1 2 1 6 4 SSE 1019,6 7 0 0,0
17.10.2018 02:00:00 8,0 7,0 5,8 11,8 14,4 14,1 2 1 3 1 W 1019,7 8 0 0,0
17.10.2018 01:00:00 9,2 7,9 6,6 12,5 14,7 14,1 3 1 5 3 SW 1019,7 10 0 0,0
17.10.2018 00:00:00 10,2 9,0 9,0 12,9 15,0 14,1 3 1 4 2 S 1020,0 11 0 0,0
16.10.2018 23:00:00 9,5 8,4 8,0 13,2 15,3 14,1 0 0 2 1 N 1020,1 7 0 0,0
16.10.2018 22:00:00 10,6 8,2 7,7 14,0 15,6 14,1 0 0 7 4 N 1019,9 12 0 0,0
16.10.2018 21:00:00 11,3 8,1 9,8 14,7 15,9 14,1 2 1 5 3 W 1019,7 13 0 0,0
16.10.2018 20:00:00 12,7 9,3 9,5 15,6 16,1 14,1 0 0 3 2 N 1019,5 16 0 0,0
16.10.2018 19:00:00 15,2 10,6 11,0 17,1 16,2 14,1 2 1 3 2 S 1018,9 24 0 0,0
16.10.2018 18:00:00 20,9 10,6 16,8 18,8 16,0 14,1 0 0 8 4 N 1018,5 8 51 0,0
16.10.2018 17:00:00 23,1 9,1 22,0 19,8 15,6 14,1 5 3 15 8 N 1018,4 15 60 0,0
16.10.2018 16:00:00 23,5 8,9 24,3 21,1 14,9 14,1 7 4 13 7 N 1018,4 17 60 0,0
16.10.2018 15:00:00 23,2 7,1 25,2 20,9 14,1 14,1 7 4 14 8 NNW 1018,4 17 60 0,0
16.10.2018 14:00:00 21,5 6,7 24,2 19,8 13,3 14,1 5 3 10 6 NNE 1018,7 21 60 0,0
16.10.2018 13:00:00 20,4 8,1 22,8 17,5 12,6 14,1 4 2 10 6 NW 1018,8 19 60 0,0
16.10.2018 12:00:00 17,0 8,2 20,1 14,6 12,2 14,1 7 4 13 7 SW 1019,0 29 60 0,0
16.10.2018 11:00:00 12,7 7,5 15,0 11,5 12,1 14,1 5 3 8 5 SW 1018,7 15 8 0,0
16.10.2018 10:00:00 10,3 7,0 10,7 10,6 12,1 14,1 4 2 6 3 WSW 1018,5 18 0 0,0
16.10.2018 09:00:00 7,7 5,8 7,8 9,6 12,2 14,1 2 1 9 5 SW 1018,2 16 0 0,0
16.10.2018 08:00:00 7,1 5,2 6,9 9,5 12,4 14,1 0 0 8 4 N 1017,8 15 0 0,0
16.10.2018 07:00:00 5,8 4,6 6,0 9,2 12,6 14,1 4 2 7 4 WSW 1017,6 13 0 0,0
16.10.2018 06:00:00 4,4 3,5 4,2 8,9 12,9 14,1 2 1 7 4 WSW 1017,2 10 0 0,0
16.10.2018 05:00:00 4,6 3,0 3,0 9,2 13,2 14,1 3 1 8 4 E 1017,1 11 0 0,0
16.10.2018 04:00:00 5,4 4,6 3,8 9,6 13,6 14,1 3 1 7 4 SW 1016,9 14 0 0,0
16.10.2018 03:00:00 5,6 4,2 4,0 10,0 13,9 14,1 3 2 8 4 E 1016,5 10 0 0,0
16.10.2018 02:00:00 5,8 5,2 3,1 10,5 14,3 14,1 4 2 5 3 NW 1016,5 9 0 0,0
16.10.2018 01:00:00 6,2 4,8 3,6 11,1 14,7 14,1 2 1 5 3 NE 1016,3 12 0 0,0
16.10.2018 00:00:00 7,8 6,9 4,4 11,8 15,1 14,1 2 1 4 2 S 1016,2 14 0 0,0
15.10.2018 23:00:00 7,9 6,4 4,9 12,6 15,6 14,1 3 1 3 2 WNW 1016,2 12 0 0,0
15.10.2018 22:00:00 9,0 7,2 5,6 13,5 16,0 14,1 0 0 4 2 N 1016,1 16 0 0,0
15.10.2018 21:00:00 10,2 7,4 7,0 14,5 16,3 14,1 3 2 5 3 NW 1016,0 22 0 0,0
15.10.2018 20:00:00 12,2 7,2 8,1 15,8 16,6 14,1 0 0 9 5 N 1015,7 29 0 0,0
15.10.2018 19:00:00 16,0 8,0 11,3 17,5 16,7 14,1 4 2 8 5 SE 1015,3 39 1 0,0
15.10.2018 18:00:00 22,0 7,5 18,7 19,4 16,6 14,1 6 3 14 8 SSE 1014,8 41 60 0,0
15.10.2018 17:00:00 23,6 7,3 23,0 20,5 16,3 14,1 9 5 19 10 SE 1014,3 13 60 0,0
15.10.2018 16:00:00 23,9 7,0 24,8 22,0 15,6 14,1 11 6 19 10 SSE 1014,2 26 60 0,0
15.10.2018 15:00:00 24,3 7,5 26,0 21,9 14,8 14,1 9 5 18 10 SE 1014,0 28 60 0,0
15.10.2018 14:00:00 22,9 7,4 25,2 20,9 13,9 14,1 13 7 19 10 SSE 1014,2 27 60 0,0
15.10.2018 13:00:00 22,0 7,4 24,3 18,8 13,1 14,1 10 5 15 8 SE 1014,1 32 60 0,0
15.10.2018 12:00:00 20,2 7,8 22,5 16,2 12,6 14,1 8 4 11 6 SE 1014,4 38 60 0,0
15.10.2018 11:00:00 17,8 7,4 19,3 13,1 12,3 14,1 6 4 13 7 SSE 1014,5 37 60 0,0
15.10.2018 10:00:00 14,6 6,6 15,8 10,4 12,3 14,1 5 3 13 7 S 1014,5 26 60 0,0
15.10.2018 09:00:00 12,1 6,3 10,9 9,4 12,5 14,1 5 3 17 9 SSE 1014,4 26 34 0,0
15.10.2018 08:00:00 10,5 6,1 7,1 9,3 12,8 14,1 6 3 15 8 S 1014,2 22 0 0,0
15.10.2018 07:00:00 10,9 6,5 7,1 9,4 13,0 14,1 7 4 13 7 S 1013,7 21 0 0,0
15.10.2018 06:00:00 10,9 6,8 8,1 9,5 13,3 14,1 8 4 16 9 S 1013,6 20 0 0,0
15.10.2018 05:00:00 8,9 6,5 4,3 9,8 13,7 14,0 3 2 8 4 S 1013,4 18 0 0,0
15.10.2018 04:00:00 8,5 6,1 3,8 10,3 14,0 14,0 4 2 10 5 SSW 1013,7 17 0 0,0
15.10.2018 03:00:00 7,9 5,6 4,6 10,9 14,4 14,0 5 3 10 6 SSW 1013,6 16 0 0,0
15.10.2018 02:00:00 12,3 6,9 6,2 11,4 14,7 14,0 7 4 10 6 S 1013,4 24 0 0,0
15.10.2018 01:00:00 10,6 7,0 7,0 11,9 15,1 14,0 2 1 8 5 SW 1013,1 20 0 0,0
15.10.2018 00:00:00 11,6 7,5 6,9 12,6 15,5 14,0 3 2 7 4 SSE 1012,9 24 0 0,0
14.10.2018 23:00:00 11,3 7,1 6,9 13,4 15,9 14,0 3 2 5 3 E 1013,1 22 0 0,0
14.10.2018 22:00:00 14,0 7,5 9,2 14,4 16,2 14,0 3 1 13 7 NE 1013,1 27 0 0,0
14.10.2018 21:00:00 16,7 7,3 13,2 15,3 16,5 14,0 8 4 16 8 SE 1013,0 36 0 0,0
14.10.2018 20:00:00 18,2 7,5 15,2 16,4 16,7 14,0 8 5 14 8 SE 1013,1 34 0 0,0
14.10.2018 19:00:00 19,5 7,6 16,7 17,7 16,8 14,0 9 5 17 9 SSE 1012,9 41 5 0,0
14.10.2018 18:00:00 21,6 7,7 20,0 19,3 16,7 14,0 11 6 28 15 SE 1012,9 34 60 0,0
14.10.2018 17:00:00 22,7 7,8 22,2 20,2 16,4 14,0 14 8 31 17 SE 1013,1 25 60 0,0
14.10.2018 16:00:00 23,2 7,4 24,0 21,6 15,8 14,0 17 9 29 16 SSE 1013,2 19 60 0,0
14.10.2018 15:00:00 22,9 7,9 24,5 21,5 15,0 14,0 16 9 35 19 SE 1013,0 22 60 0,0
14.10.2018 14:00:00 22,4 7,7 24,8 20,7 14,2 14,0 16 9 27 15 S 1013,7 17 60 0,0
14.10.2018 13:00:00 21,4 8,1 24,0 18,7 13,5 14,0 11 6 25 14 SSE 1014,1 27 60 0,0
14.10.2018 12:00:00 19,8 8,5 22,1 16,2 13,0 14,0 11 6 21 12 SSE 1014,2 21 60 0,0
14.10.2018 11:00:00 16,4 8,4 18,1 13,4 12,8 13,9 13 7 22 12 SSE 1014,9 13 60 0,0
14.10.2018 10:00:00 14,2 8,0 15,2 10,8 12,9 13,9 8 4 19 10 SSE 1015,0 14 60 0,0
14.10.2018 09:00:00 12,3 7,7 10,8 9,8 13,1 13,9 5 3 14 7 SSE 1015,2 11 33 0,0
14.10.2018 08:00:00 10,4 7,3 6,7 9,8 13,4 13,9 4 2 18 10 S 1015,4 11 0 0,0
14.10.2018 07:00:00 11,8 7,4 9,7 9,9 13,7 13,9 10 5 22 12 SSE 1015,7 12 0 0,0
14.10.2018 06:00:00 10,1 7,4 5,1 10,2 14,1 13,9 4 2 10 5 ESE 1016,3 11 0 0,0
14.10.2018 05:00:00 10,2 7,2 6,6 10,7 14,4 13,9 4 2 7 4 E 1016,9 12 0 0,0
14.10.2018 04:00:00 10,0 7,1 5,8 11,3 14,8 13,8 5 3 8 4 E 1017,2 13 0 0,0
14.10.2018 03:00:00 11,4 7,6 5,1 12,1 15,2 13,8 4 2 14 7 S 1017,8 17 0 0,0
14.10.2018 02:00:00 13,4 7,7 8,7 13,0 15,5 13,8 5 3 21 11 SSE 1018,0 19 0 0,0
14.10.2018 01:00:00 15,7 7,8 13,8 13,6 15,8 13,8 15 8 27 14 SE 1018,2 22 0 0,0
14.10.2018 00:00:00 15,6 7,4 13,1 13,8 16,2 13,8 10 6 20 11 SE 1018,7 25 0 0,0
13.10.2018 23:00:00 15,8 7,2 11,9 14,5 16,6 13,8 7 4 16 8 SE 1019,1 26 0 0,0
13.10.2018 22:00:00 17,0 7,1 11,2 15,5 16,9 13,8 6 4 16 9 SE 1019,7 36 0 0,0
13.10.2018 21:00:00 19,3 7,6 16,1 16,4 17,3 13,8 9 5 15 8 SE 1019,9 39 0 0,0
13.10.2018 20:00:00 19,9 8,9 15,6 17,6 17,5 13,8 8 5 15 8 ESE 1020,1 43 0 0,0
13.10.2018 19:00:00 21,7 8,7 18,3 19,1 17,6 13,8 9 5 15 8 ESE 1019,9 54 8 0,0
13.10.2018 18:00:00 24,3 8,9 21,7 20,9 17,5 13,8 8 4 21 11 SE 1020,2 44 60 0,0
13.10.2018 17:00:00 25,7 8,4 25,3 22,0 17,1 13,8 14 7 24 13 SSE 1020,7 29 60 0,0
13.10.2018 16:00:00 26,8 9,5 27,7 23,5 16,4 13,8 16 8 23 13 SSE 1021,0 25 60 0,0
13.10.2018 15:00:00 26,7 9,6 28,6 23,5 15,6 13,8 15 8 27 14 SSE 1021,4 34 60 0,0
13.10.2018 14:00:00 26,0 10,2 28,3 22,6 14,6 13,8 13 7 25 14 SE 1022,2 32 60 0,0
13.10.2018 13:00:00 25,4 11,0 27,8 20,6 13,7 13,7 13 7 21 11 SSE 1022,8 32 60 0,0
13.10.2018 12:00:00 24,2 11,8 26,3 17,9 13,0 13,7 9 5 18 10 SSE 1023,1 39 60 0,0
13.10.2018 11:00:00 20,9 11,2 22,6 14,6 12,7 13,7 3 2 11 6 S 1023,6 33 60 0,0
13.10.2018 10:00:00 16,9 10,8 18,4 11,4 12,7 13,7 5 3 9 5 S 1023,7 23 60 0,0
13.10.2018 09:00:00 10,2 8,8 10,1 10,0 12,9 13,7 0 0 4 2 N 1024,0 22 33 0,0
13.10.2018 08:00:00 8,0 7,4 5,3 10,0 13,2 13,7 3 1 6 3 S 1024,0 10 0 0,0
13.10.2018 07:00:00 8,0 7,2 5,7 10,3 13,5 13,7 0 0 4 2 N 1024,1 11 0 0,0
13.10.2018 06:00:00 8,4 7,9 5,6 10,6 13,8 13,6 3 1 7 4 WNW 1024,0 8 0 0,0
13.10.2018 05:00:00 9,0 8,4 5,9 11,0 14,1 13,6 3 1 6 3 SW 1023,8 19 0 0,0
13.10.2018 04:00:00 9,1 8,3 6,4 11,5 14,4 13,6 2 1 7 4 SW 1023,8 16 0 0,0
13.10.2018 03:00:00 9,4 9,0 6,5 11,9 14,8 13,6 0 0 3 2 N 1023,5 14 0 0,0
13.10.2018 02:00:00 10,3 9,4 6,7 12,5 15,1 13,6 0 0 4 2 N 1023,6 20 0 0,0
13.10.2018 01:00:00 11,0 9,3 7,6 13,1 15,4 13,6 3 1 4 2 WSW 1023,6 20 0 0,0
13.10.2018 00:00:00 14,1 10,5 9,3 13,7 15,8 13,6 6 3 10 6 SSE 1023,5 32 0 0,0
12.10.2018 23:00:00 14,1 11,1 9,1 14,4 16,2 13,6 4 2 8 4 SW 1023,6 37 0 0,0
12.10.2018 22:00:00 14,2 11,2 9,8 15,1 16,5 13,6 3 2 9 5 S 1023,6 34 0 0,0
12.10.2018 21:00:00 13,5 11,3 10,2 16,1 16,9 13,6 6 3 9 5 S 1023,1 37 0 0,0
12.10.2018 20:00:00 14,7 10,4 11,7 17,3 17,1 13,6 3 2 4 2 NW 1023,0 20 0 0,0
12.10.2018 19:00:00 18,4 11,7 13,2 19,0 17,2 13,6 1 1 8 4 SSE 1022,5 19 6 0,0
12.10.2018 18:00:00 24,8 10,4 21,2 20,9 17,0 13,6 5 3 15 8 SE 1021,9 53 60 0,0
12.10.2018 17:00:00 26,2 9,4 25,5 21,7 16,6 13,6 8 4 13 7 S 1021,8 59 60 0,0
12.10.2018 16:00:00 26,3 11,1 28,2 23,4 15,9 13,6 9 5 16 9 WNW 1021,7 30 60 0,0
12.10.2018 15:00:00 26,2 10,8 28,3 23,4 14,9 13,6 10 5 18 10 SSW 1021,5 29 60 0,0
12.10.2018 14:00:00 26,0 10,7 28,6 22,3 13,9 13,6 9 5 18 10 SSW 1021,6 24 60 0,0
12.10.2018 13:00:00 25,2 10,0 28,3 20,2 13,0 13,5 9 5 18 10 SW 1021,8 33 60 0,0
12.10.2018 12:00:00 23,9 9,0 26,4 17,3 12,2 13,5 4 2 9 5 SSW 1021,6 23 60 0,0
12.10.2018 11:00:00 20,2 8,0 22,6 14,0 11,8 13,5 5 3 10 5 S 1021,6 29 57 0,0
12.10.2018 10:00:00 16,1 7,9 17,9 10,9 11,8 13,5 6 3 10 6 SE 1021,1 17 60 0,0
12.10.2018 09:00:00 11,4 7,0 11,2 9,2 11,9 13,5 2 1 7 4 WSW 1020,5 13 36 0,0
12.10.2018 08:00:00 8,0 5,7 5,7 9,0 12,2 13,5 5 3 11 6 SSE 1019,7 9 0 0,0
12.10.2018 07:00:00 8,1 6,1 4,4 9,2 12,4 13,5 2 1 9 5 S 1019,3 13 0 0,0
12.10.2018 06:00:00 8,5 5,2 5,6 9,6 12,7 13,5 4 2 8 4 S 1018,7 12 0 0,0
12.10.2018 05:00:00 10,8 6,4 6,3 9,9 13,0 13,5 3 2 13 7 SW 1018,2 16 0 0,0
12.10.2018 04:00:00 11,1 6,2 6,4 10,3 13,2 13,4 2 1 12 7 WSW 1017,9 18 0 0,0
12.10.2018 03:00:00 12,6 6,4 8,0 10,8 13,5 13,4 8 4 12 6 SSW 1017,6 21 0 0,0

tt = temperature
td = dewpoint
tt 5cm = temperature 5cm
tt -5cm = temperature -5cm
tt -20cm = temperature -20cm
tt -100cm = temperature -100cm
ff = wind speed
fx = gusts
dd = wind direction
ppp = reduced air pressure
vv = visibility
sd = sunshine duration
rr = precipitation

Next stations